Weather History for Campo, CA

Change the Weather History Date:

Saturday, September 1, 2012

  Actual Average Record
Temperature  
Mean Temperature 73 °F 72 °F  
Max Temperature 93 °F 94 °F 107 °F (1950)
Min Temperature 52 °F 52 °F 36 °F (1964)
Degree Days  
Heating Degree Days 0 0  
Month to date heating degree days 0 0  
Since 1 July heating degree days 9 14  
Cooling Degree Days 8 8  
Month to date cooling degree days 8 8  
Year to date cooling degree days 662 658  
Growing Degree Days 23 (Base 50)    
Moisture  
Dew Point 36 °F    
Average Humidity 38    
Maximum Humidity 64    
Minimum Humidity 11    
Precipitation  
Precipitation 0.00 in 0.01 in 0.25 in (1991)
Month to date precipitation 0.00 0.01  
Year to date precipitation 6.95 11.18  
Since 1 July precipitation 0.90 1.03  
Snow  
Snow 0.00 in - - ()
Month to date snowfall 0.0  
Year to date snowfall 0.0  
Since 1 July snowfall 0.0  
Snow Depth 0.00 in    
Sea Level Pressure  
Sea Level Pressure 29.87 in    
Wind  
Wind Speed 8 mph (NNW)    
Max Wind Speed 18 mph    
Max Gust Speed 25 mph    
T = Trace of Precipitation, MM = Missing Value Source: NWS Daily Summary

Daily Weather History Graph

Daily Weather History Graph

Search for Another Location

Airport:

Trip Planner

Search our weather history database for the weather conditions in past years. The results will help you decide how hot, cold, wet, or windy it might be!

Date:

Astronomy

Sep. 01, 2012 Rise Set
Actual Time 6:21 AM PDT 7:09 PM PDT
Civil Twilight 5:55 AM PDT 7:34 PM PDT
Nautical Twilight 5:26 AM PDT 8:04 PM PDT
Astronomical Twilight 4:55 AM PDT 8:34 PM PDT
Moon 7:38 PM PDT (9/1) 7:25 AM PDT (9/1)
Length of Visible Light 13h 38m
Length of Day
12h 48m
Full, 98% of the Moon is Illuminated
Sep 1
Full
Sep 8
Last Quarter
Sep 15
New
Sep 22
First Quarter
Sep 29
Full

Hourly Weather History & Observations

Time (PDT) Temp. Dew Point Humidity Pressure Visibility Wind Dir Wind Speed Gust Speed Precip Events Conditions
12:52 AM 61.0 °F 43.0 °F 52% 29.87 in - NNE 4.6 mph - N/A   Unknown
1:52 AM 59.0 °F 43.0 °F 55% 29.86 in - NE 5.8 mph - N/A   Unknown
2:52 AM 57.9 °F 42.1 °F 56% 29.86 in - NE 5.8 mph - N/A   Unknown
3:52 AM 57.9 °F 41.0 °F 53% 29.87 in - NE 4.6 mph - N/A   Unknown
4:52 AM 53.1 °F 41.0 °F 64% 29.87 in - NNE 3.5 mph - N/A   Unknown
5:52 AM 54.0 °F 39.9 °F 59% 29.88 in - ENE 6.9 mph - N/A   Unknown
6:52 AM 55.0 °F 39.0 °F 55% 29.90 in - NE 5.8 mph - N/A   Unknown
7:52 AM 64.9 °F 42.1 °F 43% 29.89 in - ENE 3.5 mph - N/A   Unknown
8:52 AM 78.1 °F 41.0 °F 27% 29.88 in - Calm Calm - N/A   Unknown
9:52 AM 88.0 °F 32.0 °F 14% 29.89 in - Variable 4.6 mph - N/A   Unknown
10:52 AM 90.0 °F 28.9 °F 11% 29.88 in - WNW 12.7 mph 18.4 mph N/A   Unknown
11:52 AM 90.0 °F 30.9 °F 12% 29.88 in - WNW 12.7 mph 19.6 mph N/A   Unknown
12:52 PM 93.0 °F 30.9 °F 11% 29.87 in - West 10.4 mph 20.7 mph N/A   Unknown
1:52 PM 91.9 °F 33.1 °F 12% 29.86 in - West 11.5 mph 17.3 mph N/A   Unknown
2:52 PM 91.9 °F 36.0 °F 14% 29.84 in - WNW 18.4 mph 25.3 mph N/A   Unknown
3:52 PM 90.0 °F 34.0 °F 14% 29.83 in - WNW 13.8 mph 21.9 mph N/A   Unknown
4:52 PM 89.1 °F 33.1 °F 14% 29.84 in - WNW 17.3 mph - N/A   Unknown
5:52 PM 87.1 °F 32.0 °F 14% 29.85 in - WNW 15.0 mph 20.7 mph N/A   Unknown
6:52 PM 82.9 °F 32.0 °F 16% 29.86 in - WNW 9.2 mph - N/A   Unknown
7:52 PM 79.0 °F 33.1 °F 19% 29.87 in - WNW 9.2 mph - N/A   Unknown
8:52 PM 73.9 °F 36.0 °F 25% 29.88 in - Calm Calm - N/A   Unknown
9:52 PM 64.9 °F 36.0 °F 34% 29.88 in - Calm Calm - N/A   Unknown
10:52 PM 64.9 °F 36.0 °F 34% 29.88 in - Calm Calm - N/A   Unknown
11:52 PM 62.1 °F 37.0 °F 39% 29.89 in - Calm Calm - N/A   Unknown